Time,TemperatureF,DewpointF,PressureIn,WindDirection,WindDirectionDegrees,WindSpeedMPH,WindSpeedGustMPH,Humidity,HourlyPrecipIn,Conditions,Clouds,dailyrainin,SoftwareType,DateUTC
2013-01-27 00:04:00,22.1,20.1,29.61,NW,309,2.0,2.0,92,0.00,,,0.00,Wunderground v.1.15,2013-01-27 05:04:00,
2013-01-27 00:09:00,22.1,20.1,29.61,NW,305,1.0,1.0,92,0.00,,,0.00,Wunderground v.1.15,2013-01-27 05:09:00,
2013-01-27 00:14:00,22.1,20.1,29.61,NW,305,2.0,2.0,92,0.00,,,0.00,Wunderground v.1.15,2013-01-27 05:14:00,
2013-01-27 00:19:00,22.0,20.0,29.61,WNW,293,3.0,3.0,92,0.00,,,0.00,Wunderground v.1.15,2013-01-27 05:19:00,
2013-01-27 00:24:00,22.0,20.0,29.61,NW,313,3.0,3.0,92,0.00,,,0.00,Wunderground v.1.15,2013-01-27 05:24:00,
2013-01-27 00:29:00,22.0,20.0,29.61,NW,322,2.0,3.0,92,0.00,,,0.00,Wunderground v.1.15,2013-01-27 05:29:00,
2013-01-27 00:34:00,22.0,20.0,29.62,NW,307,2.0,3.0,92,0.00,,,0.00,Wunderground v.1.15,2013-01-27 05:34:00,
2013-01-27 00:44:00,22.0,20.0,29.62,West,281,2.0,2.0,92,0.00,,,0.00,Wunderground v.1.15,2013-01-27 05:44:00,
2013-01-27 00:49:00,21.8,19.6,29.62,WNW,299,3.0,5.0,91,0.00,,,0.00,Wunderground v.1.15,2013-01-27 05:49:00,
2013-01-27 00:54:00,21.7,19.7,29.62,NW,311,4.0,5.0,92,0.00,,,0.00,Wunderground v.1.15,2013-01-27 05:54:00,
2013-01-27 00:59:00,21.6,19.6,29.62,NW,314,4.0,4.0,92,0.00,,,0.00,Wunderground v.1.15,2013-01-27 05:59:00,
2013-01-27 01:05:00,21.6,19.6,29.62,NW,304,3.0,12.0,92,0.00,,,0.00,Wunderground v.1.15,2013-01-27 06:05:00,
2013-01-27 01:10:00,21.6,19.6,29.63,NW,310,2.0,2.0,92,0.00,,,0.00,Wunderground v.1.15,2013-01-27 06:10:00,
2013-01-27 01:15:00,21.6,19.6,29.63,WNW,294,1.0,12.0,92,0.00,,,0.00,Wunderground v.1.15,2013-01-27 06:15:00,
2013-01-27 01:20:00,21.7,19.7,29.63,WNW,301,1.0,1.0,92,0.00,,,0.00,Wunderground v.1.15,2013-01-27 06:20:00,
2013-01-27 01:25:00,21.7,19.7,29.63,NW,304,1.0,12.0,92,0.00,,,0.00,Wunderground v.1.15,2013-01-27 06:25:00,
2013-01-27 01:30:00,21.7,19.7,29.63,NW,313,1.0,1.0,92,0.00,,,0.00,Wunderground v.1.15,2013-01-27 06:30:00,
2013-01-27 01:35:00,21.7,19.7,29.64,NW,317,1.0,12.0,92,0.00,,,0.00,Wunderground v.1.15,2013-01-27 06:35:00,
2013-01-27 01:45:00,21.8,19.8,29.64,NW,319,1.0,12.0,92,0.00,,,0.00,Wunderground v.1.15,2013-01-27 06:45:00,
2013-01-27 01:50:00,21.8,19.8,29.64,NNW,334,1.0,12.0,92,0.00,,,0.00,Wunderground v.1.15,2013-01-27 06:50:00,
2013-01-27 01:55:00,21.8,19.8,29.65,NNW,329,1.0,12.0,92,0.00,,,0.00,Wunderground v.1.15,2013-01-27 06:55:00,
2013-01-27 02:00:00,21.8,19.8,29.65,NNW,339,2.0,2.0,92,0.00,,,0.00,Wunderground v.1.15,2013-01-27 07:00:00,
2013-01-27 02:05:00,21.8,19.8,29.65,NNW,338,2.0,12.0,92,0.00,,,0.00,Wunderground v.1.15,2013-01-27 07:05:00,
2013-01-27 02:15:00,21.7,19.7,29.66,NNW,338,2.0,12.0,92,0.00,,,0.00,Wunderground v.1.15,2013-01-27 07:15:00,
2013-01-27 02:20:00,21.7,19.7,29.66,NNW,338,2.0,2.0,92,0.00,,,0.00,Wunderground v.1.15,2013-01-27 07:20:00,
2013-01-27 02:25:00,21.7,19.7,29.66,NNW,338,2.0,12.0,92,0.00,,,0.00,Wunderground v.1.15,2013-01-27 07:25:00,
2013-01-27 02:30:00,21.6,19.6,29.66,NNW,338,1.0,1.0,92,0.00,,,0.00,Wunderground v.1.15,2013-01-27 07:30:00,
2013-01-27 02:35:00,21.6,19.9,29.66,NNW,338,0.0,12.0,93,0.00,,,0.00,Wunderground v.1.15,2013-01-27 07:35:00,
2013-01-27 02:40:00,21.5,19.8,29.66,NNW,338,0.0,12.0,93,0.00,,,0.00,Wunderground v.1.15,2013-01-27 07:40:00,
2013-01-27 02:45:00,21.5,19.8,29.66,NNW,338,0.0,12.0,93,0.00,,,0.00,Wunderground v.1.15,2013-01-27 07:45:00,
2013-01-27 02:55:00,21.3,19.6,29.67,NNW,338,0.0,12.0,93,0.00,,,0.00,Wunderground v.1.15,2013-01-27 07:55:00,
2013-01-27 03:00:00,21.1,19.1,29.67,NNW,338,0.0,12.0,92,0.00,,,0.00,Wunderground v.1.15,2013-01-27 08:00:00,
2013-01-27 03:05:00,21.0,19.0,29.67,NNW,338,0.0,12.0,92,0.00,,,0.00,Wunderground v.1.15,2013-01-27 08:05:00,
2013-01-27 03:10:00,20.9,19.2,29.67,NNW,338,0.0,12.0,93,0.00,,,0.00,Wunderground v.1.15,2013-01-27 08:10:00,
2013-01-27 03:15:00,20.8,19.1,29.67,NNW,338,0.0,12.0,93,0.00,,,0.00,Wunderground v.1.15,2013-01-27 08:15:00,
2013-01-27 03:25:00,20.6,18.6,29.67,NNW,338,0.0,12.0,92,0.00,,,0.00,Wunderground v.1.15,2013-01-27 08:25:00,
2013-01-27 03:30:00,20.6,18.9,29.67,NNW,338,0.0,12.0,93,0.00,,,0.00,Wunderground v.1.15,2013-01-27 08:30:00,
2013-01-27 03:35:00,20.6,18.9,29.68,NNW,338,0.0,12.0,93,0.00,,,0.00,Wunderground v.1.15,2013-01-27 08:35:00,
2013-01-27 03:40:00,20.6,18.9,29.68,NNW,338,0.0,12.0,93,0.00,,,0.00,Wunderground v.1.15,2013-01-27 08:40:00,
2013-01-27 03:45:00,20.5,18.8,29.67,NNW,338,0.0,12.0,93,0.00,,,0.00,Wunderground v.1.15,2013-01-27 08:45:00,
2013-01-27 03:50:00,20.5,18.8,29.67,NNW,338,0.0,12.0,93,0.00,,,0.00,Wunderground v.1.15,2013-01-27 08:50:00,
2013-01-27 04:00:00,20.6,18.9,29.67,NNW,338,0.0,12.0,93,0.00,,,0.00,Wunderground v.1.15,2013-01-27 09:00:00,
2013-01-27 04:05:00,20.7,19.0,29.68,NNW,338,0.0,12.0,93,0.00,,,0.00,Wunderground v.1.15,2013-01-27 09:05:00,
2013-01-27 04:10:00,20.9,19.2,29.68,NNW,338,0.0,12.0,93,0.00,,,0.00,Wunderground v.1.15,2013-01-27 09:10:00,
2013-01-27 04:15:00,20.9,19.2,29.68,NNW,338,0.0,12.0,93,0.00,,,0.00,Wunderground v.1.15,2013-01-27 09:15:00,
2013-01-27 04:20:00,20.9,19.2,29.68,NNW,338,0.0,12.0,93,0.00,,,0.00,Wunderground v.1.15,2013-01-27 09:20:00,
2013-01-27 04:30:00,20.9,19.2,29.68,NNW,338,0.0,12.0,93,0.00,,,0.00,Wunderground v.1.15,2013-01-27 09:30:00,
2013-01-27 04:35:00,20.8,19.1,29.68,NNW,338,0.0,12.0,93,0.00,,,0.00,Wunderground v.1.15,2013-01-27 09:35:00,
2013-01-27 04:40:00,20.7,19.0,29.68,NNW,338,0.0,12.0,93,0.00,,,0.00,Wunderground v.1.15,2013-01-27 09:40:00,
2013-01-27 04:45:00,20.6,18.9,29.68,NNW,338,0.0,12.0,93,0.00,,,0.00,Wunderground v.1.15,2013-01-27 09:45:00,
2013-01-27 04:50:00,20.6,18.9,29.68,NNW,338,0.0,12.0,93,0.00,,,0.00,Wunderground v.1.15,2013-01-27 09:50:00,
2013-01-27 04:55:00,20.5,18.8,29.68,NNW,338,0.0,12.0,93,0.00,,,0.00,Wunderground v.1.15,2013-01-27 09:55:00,
2013-01-27 05:05:00,20.5,19.0,29.69,NNW,338,0.0,12.0,94,0.00,,,0.00,Wunderground v.1.15,2013-01-27 10:05:00,
2013-01-27 05:10:00,20.5,19.0,29.69,NNW,338,0.0,12.0,94,0.00,,,0.00,Wunderground v.1.15,2013-01-27 10:10:00,
2013-01-27 05:15:00,20.5,19.0,29.69,NNW,338,0.0,12.0,94,0.00,,,0.00,Wunderground v.1.15,2013-01-27 10:15:00,
2013-01-27 05:20:00,20.4,18.9,29.69,NNW,338,0.0,12.0,94,0.00,,,0.00,Wunderground v.1.15,2013-01-27 10:20:00,
2013-01-27 05:25:00,20.4,18.9,29.69,NNW,338,0.0,12.0,94,0.00,,,0.00,Wunderground v.1.15,2013-01-27 10:25:00,
2013-01-27 05:30:00,20.5,19.0,29.69,NNW,338,1.0,1.0,94,0.00,,,0.00,Wunderground v.1.15,2013-01-27 10:30:00,
2013-01-27 05:35:00,20.4,18.7,29.69,NNW,338,0.0,12.0,93,0.00,,,0.00,Wunderground v.1.15,2013-01-27 10:35:00,
2013-01-27 05:40:00,20.3,18.6,29.69,NNW,338,0.0,12.0,93,0.00,,,0.00,Wunderground v.1.15,2013-01-27 10:40:00,
2013-01-27 05:45:00,20.2,18.5,29.69,NNW,338,0.0,12.0,93,0.00,,,0.00,Wunderground v.1.15,2013-01-27 10:45:00,
2013-01-27 05:50:00,20.1,18.4,29.69,NNW,338,0.0,12.0,93,0.00,,,0.00,Wunderground v.1.15,2013-01-27 10:50:00,
2013-01-27 05:55:00,20.0,18.3,29.70,NNW,338,0.0,12.0,93,0.00,,,0.00,Wunderground v.1.15,2013-01-27 10:55:00,
2013-01-27 06:05:00,20.0,18.3,29.70,NNW,338,0.0,12.0,93,0.00,,,0.00,Wunderground v.1.15,2013-01-27 11:05:00,
2013-01-27 06:10:00,20.1,18.7,29.70,NNW,338,0.0,12.0,94,0.00,,,0.00,Wunderground v.1.15,2013-01-27 11:10:00,
2013-01-27 06:15:00,20.2,18.8,29.70,NNW,338,0.0,12.0,94,0.00,,,0.00,Wunderground v.1.15,2013-01-27 11:15:00,
2013-01-27 06:20:00,20.3,18.8,29.71,NNW,338,0.0,12.0,94,0.00,,,0.00,Wunderground v.1.15,2013-01-27 11:20:00,
2013-01-27 06:25:00,20.4,18.9,29.71,NNW,338,0.0,12.0,94,0.00,,,0.00,Wunderground v.1.15,2013-01-27 11:25:00,
2013-01-27 06:30:00,20.4,18.9,29.71,NNW,338,0.0,12.0,94,0.00,,,0.00,Wunderground v.1.15,2013-01-27 11:30:00,
2013-01-27 06:40:00,20.5,19.0,29.71,NNW,338,0.0,12.0,94,0.00,,,0.00,Wunderground v.1.15,2013-01-27 11:40:00,
2013-01-27 06:45:00,20.5,19.0,29.71,NNW,338,0.0,12.0,94,0.00,,,0.00,Wunderground v.1.15,2013-01-27 11:45:00,
2013-01-27 06:50:00,20.2,18.5,29.72,NNW,338,0.0,12.0,93,0.00,,,0.00,Wunderground v.1.15,2013-01-27 11:50:00,
2013-01-27 06:55:00,20.1,18.4,29.72,NNW,338,0.0,12.0,93,0.00,,,0.00,Wunderground v.1.15,2013-01-27 11:55:00,
2013-01-27 07:00:00,19.9,18.2,29.72,NNW,338,0.0,12.0,93,0.00,,,0.00,Wunderground v.1.15,2013-01-27 12:00:00,
2013-01-27 07:10:00,19.7,18.0,29.72,NNW,338,0.0,12.0,93,0.00,,,0.00,Wunderground v.1.15,2013-01-27 12:10:00,
2013-01-27 07:15:00,19.5,17.8,29.72,NNW,338,0.0,12.0,93,0.00,,,0.00,Wunderground v.1.15,2013-01-27 12:15:00,
2013-01-27 07:20:00,19.4,17.7,29.73,NNW,338,0.0,12.0,93,0.00,,,0.00,Wunderground v.1.15,2013-01-27 12:20:00,
2013-01-27 07:25:00,19.2,17.5,29.72,NNW,338,0.0,12.0,93,0.00,,,0.00,Wunderground v.1.15,2013-01-27 12:25:00,
2013-01-27 07:30:00,19.1,17.4,29.73,NNW,338,0.0,12.0,93,0.00,,,0.00,Wunderground v.1.15,2013-01-27 12:30:00,
2013-01-27 07:35:00,19.0,17.3,29.73,NNW,338,0.0,12.0,93,0.00,,,0.00,Wunderground v.1.15,2013-01-27 12:35:00,
2013-01-27 07:45:00,18.2,16.5,29.73,West,271,2.0,12.0,93,0.00,,,0.00,Wunderground v.1.15,2013-01-27 12:45:00,
2013-01-27 07:50:00,17.8,16.1,29.73,West,281,5.0,5.0,93,0.00,,,0.00,Wunderground v.1.15,2013-01-27 12:50:00,
2013-01-27 07:55:00,17.9,16.2,29.73,WNW,283,5.0,12.0,93,0.00,,,0.00,Wunderground v.1.15,2013-01-27 12:55:00,
2013-01-27 08:00:00,18.3,16.9,29.73,WNW,283,3.0,3.0,94,0.00,,,0.00,Wunderground v.1.15,2013-01-27 13:00:00,
2013-01-27 08:05:00,18.3,16.6,29.73,WNW,282,1.0,12.0,93,0.00,,,0.00,Wunderground v.1.15,2013-01-27 13:05:00,
2013-01-27 08:15:00,18.4,16.7,29.73,West,275,3.0,12.0,93,0.00,,,0.00,Wunderground v.1.15,2013-01-27 13:15:00,
2013-01-27 08:20:00,19.2,17.8,29.74,West,275,3.0,3.0,94,0.00,,,0.00,Wunderground v.1.15,2013-01-27 13:20:00,
2013-01-27 08:25:00,20.1,18.7,29.74,NW,309,1.0,12.0,94,0.00,,,0.00,Wunderground v.1.15,2013-01-27 13:25:00,
2013-01-27 08:30:00,20.5,19.0,29.75,NW,309,0.0,12.0,94,0.00,,,0.00,Wunderground v.1.15,2013-01-27 13:30:00,
2013-01-27 08:35:00,20.7,19.0,29.75,WNW,301,0.0,12.0,93,0.00,,,0.00,Wunderground v.1.15,2013-01-27 13:35:00,
2013-01-27 08:40:00,21.0,19.3,29.75,WNW,292,1.0,12.0,93,0.00,,,0.00,Wunderground v.1.15,2013-01-27 13:40:00,
2013-01-27 08:45:00,20.4,18.2,29.75,West,273,3.0,12.0,91,0.00,,,0.00,Wunderground v.1.15,2013-01-27 13:45:00,
2013-01-27 08:50:00,20.6,18.4,29.75,West,280,2.0,2.0,91,0.00,,,0.00,Wunderground v.1.15,2013-01-27 13:50:00,
2013-01-27 08:55:00,20.9,18.4,29.75,West,280,1.0,12.0,90,0.00,,,0.00,Wunderground v.1.15,2013-01-27 13:55:00,
2013-01-27 09:00:00,21.5,19.3,29.75,WNW,284,1.0,1.0,91,0.00,,,0.00,Wunderground v.1.15,2013-01-27 14:00:00,
2013-01-27 09:05:00,22.1,19.6,29.75,WNW,284,0.0,12.0,90,0.00,,,0.00,Wunderground v.1.15,2013-01-27 14:05:00,
2013-01-27 09:10:00,22.1,19.4,29.75,WNW,284,1.0,1.0,89,0.00,,,0.00,Wunderground v.1.15,2013-01-27 14:10:00,
2013-01-27 09:20:00,23.1,20.1,29.75,NW,308,0.0,12.0,88,0.00,,,0.00,Wunderground v.1.15,2013-01-27 14:20:00,
2013-01-27 09:25:00,23.7,20.7,29.75,NW,308,0.0,12.0,88,0.00,,,0.00,Wunderground v.1.15,2013-01-27 14:25:00,
2013-01-27 09:30:00,24.2,20.9,29.74,NW,308,0.0,12.0,87,0.00,,,0.00,Wunderground v.1.15,2013-01-27 14:30:00,
2013-01-27 09:35:00,23.2,19.6,29.74,West,263,1.0,12.0,86,0.00,,,0.00,Wunderground v.1.15,2013-01-27 14:35:00,
2013-01-27 09:40:00,22.5,19.2,29.74,West,263,2.0,2.0,87,0.00,,,0.00,Wunderground v.1.15,2013-01-27 14:40:00,
2013-01-27 09:50:00,23.5,20.5,29.75,West,263,0.0,12.0,88,0.00,,,0.00,Wunderground v.1.15,2013-01-27 14:50:00,
2013-01-27 09:55:00,23.8,20.5,29.75,West,263,0.0,12.0,87,0.00,,,0.00,Wunderground v.1.15,2013-01-27 14:55:00,
2013-01-27 10:00:00,24.1,20.5,29.75,West,263,0.0,12.0,86,0.00,,,0.00,Wunderground v.1.15,2013-01-27 15:00:00,
2013-01-27 10:05:00,24.0,20.4,29.74,West,263,0.0,12.0,86,0.00,,,0.00,Wunderground v.1.15,2013-01-27 15:05:00,
2013-01-27 10:10:00,24.3,21.0,29.75,West,263,0.0,12.0,87,0.00,,,0.00,Wunderground v.1.15,2013-01-27 15:10:00,
2013-01-27 10:15:00,25.2,21.9,29.76,West,263,0.0,12.0,87,0.00,,,0.01,Wunderground v.1.15,2013-01-27 15:15:00,
2013-01-27 10:25:00,26.1,21.6,29.77,West,263,0.0,12.0,83,0.00,,,0.01,Wunderground v.1.15,2013-01-27 15:25:00,
2013-01-27 10:30:00,25.4,20.7,29.77,West,263,0.0,12.0,82,0.00,,,0.01,Wunderground v.1.15,2013-01-27 15:30:00,
2013-01-27 10:35:00,25.4,21.0,29.77,West,263,1.0,12.0,83,0.00,,,0.01,Wunderground v.1.15,2013-01-27 15:35:00,
2013-01-27 10:40:00,26.3,22.1,29.77,West,263,1.0,12.0,84,0.00,,,0.01,Wunderground v.1.15,2013-01-27 15:40:00,
2013-01-27 10:45:00,27.4,22.9,29.77,West,266,1.0,12.0,83,0.00,,,0.01,Wunderground v.1.15,2013-01-27 15:45:00,
2013-01-27 10:55:00,28.2,23.1,29.76,West,268,2.0,12.0,81,0.00,,,0.01,Wunderground v.1.15,2013-01-27 15:55:00,
2013-01-27 11:00:00,27.3,21.6,29.76,West,268,0.0,12.0,79,0.00,,,0.01,Wunderground v.1.15,2013-01-27 16:00:00,
2013-01-27 11:05:00,27.1,21.5,29.76,West,268,1.0,12.0,79,0.00,,,0.01,Wunderground v.1.15,2013-01-27 16:05:00,
2013-01-27 11:10:00,27.5,22.1,29.76,West,268,0.0,12.0,80,0.00,,,0.01,Wunderground v.1.15,2013-01-27 16:10:00,
2013-01-27 11:15:00,27.4,21.7,29.76,West,268,0.0,12.0,79,0.00,,,0.01,Wunderground v.1.15,2013-01-27 16:15:00,
2013-01-27 11:20:00,27.3,21.9,29.76,West,268,0.0,12.0,80,0.00,,,0.01,Wunderground v.1.15,2013-01-27 16:20:00,
2013-01-27 11:30:00,27.4,22.0,29.74,West,268,0.0,12.0,80,0.00,,,0.01,Wunderground v.1.15,2013-01-27 16:30:00,
2013-01-27 11:35:00,27.2,21.8,29.74,West,268,0.0,12.0,80,0.00,,,0.02,Wunderground v.1.15,2013-01-27 16:35:00,
2013-01-27 11:40:00,27.3,22.2,29.74,West,268,0.0,12.0,81,0.00,,,0.02,Wunderground v.1.15,2013-01-27 16:40:00,
2013-01-27 11:45:00,27.6,21.6,29.73,West,263,1.0,12.0,78,0.00,,,0.02,Wunderground v.1.15,2013-01-27 16:45:00,
2013-01-27 11:50:00,27.8,21.8,29.73,West,263,1.0,1.0,78,0.00,,,0.02,Wunderground v.1.15,2013-01-27 16:50:00,
2013-01-27 12:00:00,26.7,20.8,29.72,SW,219,0.0,12.0,78,0.00,,,0.02,Wunderground v.1.15,2013-01-27 17:00:00,
2013-01-27 12:05:00,26.0,20.1,29.72,SW,218,1.0,12.0,78,0.00,,,0.02,Wunderground v.1.15,2013-01-27 17:05:00,
2013-01-27 12:10:00,25.9,20.3,29.72,SW,218,1.0,1.0,79,0.00,,,0.02,Wunderground v.1.15,2013-01-27 17:10:00,
2013-01-27 12:15:00,25.8,20.2,29.72,SW,218,0.0,12.0,79,0.00,,,0.03,Wunderground v.1.15,2013-01-27 17:15:00,
2013-01-27 12:20:00,26.1,21.1,29.71,SW,218,0.0,12.0,81,0.00,,,0.03,Wunderground v.1.15,2013-01-27 17:20:00,
2013-01-27 12:25:00,26.1,21.4,29.71,SW,218,0.0,12.0,82,0.00,,,0.03,Wunderground v.1.15,2013-01-27 17:25:00,
2013-01-27 12:30:00,25.6,20.9,29.71,SW,218,0.0,12.0,82,0.00,,,0.03,Wunderground v.1.15,2013-01-27 17:30:00,
2013-01-27 12:35:00,25.2,20.8,29.70,SW,218,0.0,12.0,83,0.00,,,0.03,Wunderground v.1.15,2013-01-27 17:35:00,
2013-01-27 12:40:00,25.7,21.5,29.70,SW,218,0.0,12.0,84,0.00,,,0.03,Wunderground v.1.15,2013-01-27 17:40:00,
2013-01-27 12:45:00,26.4,21.7,29.70,SW,218,0.0,12.0,82,0.00,,,0.03,Wunderground v.1.15,2013-01-27 17:45:00,
2013-01-27 12:50:00,26.0,21.3,29.70,SSW,209,0.0,12.0,82,0.00,,,0.03,Wunderground v.1.15,2013-01-27 17:50:00,
2013-01-27 13:00:00,26.2,21.5,29.71,SSW,209,0.0,12.0,82,0.00,,,0.04,Wunderground v.1.15,2013-01-27 18:00:00,
2013-01-27 13:05:00,26.1,21.6,29.71,SSW,209,1.0,12.0,83,0.00,,,0.04,Wunderground v.1.15,2013-01-27 18:05:00,
2013-01-27 13:10:00,25.3,20.9,29.71,SSW,209,1.0,12.0,83,0.00,,,0.04,Wunderground v.1.15,2013-01-27 18:10:00,
2013-01-27 13:15:00,24.7,20.6,29.71,SSW,201,1.0,12.0,84,0.00,,,0.04,Wunderground v.1.15,2013-01-27 18:15:00,
2013-01-27 13:20:00,24.8,21.2,29.71,SSW,201,1.0,1.0,86,0.00,,,0.04,Wunderground v.1.15,2013-01-27 18:20:00,
2013-01-27 13:25:00,24.9,21.3,29.71,SSW,201,0.0,12.0,86,0.00,,,0.04,Wunderground v.1.15,2013-01-27 18:25:00,
2013-01-27 13:35:00,25.1,21.5,29.71,SSW,201,0.0,12.0,86,0.00,,,0.05,Wunderground v.1.15,2013-01-27 18:35:00,
2013-01-27 13:40:00,25.1,21.5,29.70,SSW,201,0.0,12.0,86,0.00,,,0.05,Wunderground v.1.15,2013-01-27 18:40:00,
2013-01-27 13:45:00,25.1,21.5,29.70,SSW,201,0.0,12.0,86,0.00,,,0.05,Wunderground v.1.15,2013-01-27 18:45:00,
2013-01-27 13:50:00,25.0,21.4,29.70,SSW,201,0.0,12.0,86,0.00,,,0.05,Wunderground v.1.15,2013-01-27 18:50:00,
2013-01-27 13:55:00,25.4,22.1,29.70,SSW,201,0.0,12.0,87,0.00,,,0.05,Wunderground v.1.15,2013-01-27 18:55:00,
2013-01-27 14:00:00,26.0,22.9,29.70,SSW,201,0.0,12.0,88,0.00,,,0.05,Wunderground v.1.15,2013-01-27 19:00:00,
2013-01-27 14:10:00,27.2,23.8,29.70,SSW,201,0.0,12.0,87,0.00,,,0.05,Wunderground v.1.15,2013-01-27 19:10:00,
2013-01-27 14:15:00,27.6,24.2,29.70,SSW,201,0.0,12.0,87,0.00,,,0.05,Wunderground v.1.15,2013-01-27 19:15:00,
2013-01-27 14:20:00,27.8,24.2,29.70,SSW,201,0.0,12.0,86,0.00,,,0.06,Wunderground v.1.15,2013-01-27 19:20:00,
2013-01-27 14:25:00,28.1,24.5,29.70,SSW,201,0.0,12.0,86,0.00,,,0.06,Wunderground v.1.15,2013-01-27 19:25:00,
2013-01-27 14:30:00,27.7,23.8,29.70,SSE,165,1.0,1.0,85,0.00,,,0.06,Wunderground v.1.15,2013-01-27 19:30:00,
2013-01-27 14:40:00,28.1,24.5,29.70,SSE,165,0.0,12.0,86,0.00,,,0.06,Wunderground v.1.15,2013-01-27 19:40:00,
2013-01-27 14:45:00,28.5,24.3,29.71,SSE,165,0.0,12.0,84,0.00,,,0.06,Wunderground v.1.15,2013-01-27 19:45:00,
2013-01-27 14:50:00,28.8,24.6,29.70,SSE,165,0.0,12.0,84,0.00,,,0.06,Wunderground v.1.15,2013-01-27 19:50:00,
2013-01-27 14:55:00,28.9,24.4,29.70,SSE,165,0.0,12.0,83,0.00,,,0.06,Wunderground v.1.15,2013-01-27 19:55:00,
2013-01-27 15:00:00,29.1,24.6,29.70,SSE,165,0.0,12.0,83,0.00,,,0.06,Wunderground v.1.15,2013-01-27 20:00:00,
2013-01-27 15:05:00,29.3,24.8,29.70,SSE,165,0.0,12.0,83,0.00,,,0.06,Wunderground v.1.15,2013-01-27 20:05:00,
2013-01-27 15:15:00,29.0,24.2,29.70,SSE,165,0.0,12.0,82,0.00,,,0.06,Wunderground v.1.15,2013-01-27 20:15:00,
2013-01-27 15:20:00,28.3,23.5,29.70,SSE,165,0.0,12.0,82,0.00,,,0.06,Wunderground v.1.15,2013-01-27 20:20:00,
2013-01-27 15:25:00,27.7,22.9,29.69,SSE,165,0.0,12.0,82,0.00,,,0.06,Wunderground v.1.15,2013-01-27 20:25:00,
2013-01-27 15:30:00,27.1,22.3,29.69,SSE,165,0.0,12.0,82,0.00,,,0.06,Wunderground v.1.15,2013-01-27 20:30:00,
2013-01-27 15:35:00,26.7,21.4,29.69,SSE,165,0.0,12.0,80,0.00,,,0.07,Wunderground v.1.15,2013-01-27 20:35:00,
2013-01-27 15:45:00,26.5,21.2,29.69,SSE,165,0.0,12.0,80,0.00,,,0.07,Wunderground v.1.15,2013-01-27 20:45:00,
2013-01-27 15:50:00,26.2,21.2,29.69,SSE,165,0.0,12.0,81,0.00,,,0.07,Wunderground v.1.15,2013-01-27 20:50:00,
2013-01-27 15:55:00,26.0,21.5,29.69,SSE,165,0.0,12.0,83,0.00,,,0.07,Wunderground v.1.15,2013-01-27 20:55:00,
2013-01-27 16:00:00,25.9,21.7,29.69,SSE,165,0.0,12.0,84,0.00,,,0.07,Wunderground v.1.15,2013-01-27 21:00:00,
2013-01-27 16:05:00,26.0,22.1,29.69,SSE,165,0.0,12.0,85,0.00,,,0.07,Wunderground v.1.15,2013-01-27 21:05:00,
2013-01-27 16:10:00,26.1,22.2,29.69,SSE,165,0.0,12.0,85,0.00,,,0.07,Wunderground v.1.15,2013-01-27 21:10:00,
2013-01-27 16:20:00,25.6,21.4,29.70,SSE,165,0.0,12.0,84,0.00,,,0.07,Wunderground v.1.15,2013-01-27 21:20:00,
2013-01-27 16:25:00,25.4,21.2,29.69,SSE,165,0.0,12.0,84,0.00,,,0.07,Wunderground v.1.15,2013-01-27 21:25:00,
2013-01-27 16:30:00,25.3,20.9,29.69,SSE,165,0.0,12.0,83,0.00,,,0.07,Wunderground v.1.15,2013-01-27 21:30:00,
2013-01-27 16:35:00,25.3,20.9,29.69,SSE,165,0.0,12.0,83,0.00,,,0.07,Wunderground v.1.15,2013-01-27 21:35:00,
2013-01-27 16:40:00,25.2,20.5,29.68,SSE,165,0.0,12.0,82,0.00,,,0.07,Wunderground v.1.15,2013-01-27 21:40:00,
2013-01-27 16:45:00,25.2,20.5,29.69,SSE,165,1.0,12.0,82,0.00,,,0.07,Wunderground v.1.15,2013-01-27 21:45:00,
2013-01-27 16:50:00,25.3,20.6,29.68,SSE,165,1.0,1.0,82,0.00,,,0.07,Wunderground v.1.15,2013-01-27 21:50:00,
2013-01-27 16:55:00,25.3,20.0,29.69,SSE,165,1.0,12.0,80,0.00,,,0.07,Wunderground v.1.15,2013-01-27 21:55:00,
2013-01-27 17:00:00,25.3,20.3,29.68,SSE,165,1.0,12.0,81,0.00,,,0.07,Wunderground v.1.15,2013-01-27 22:00:00,
2013-01-27 17:09:00,25.1,20.1,29.68,SSE,165,2.0,2.0,81,0.00,,,0.07,Wunderground v.1.15,2013-01-27 22:09:00,
2013-01-27 17:14:00,24.6,19.6,29.67,SSE,153,3.0,5.0,81,0.00,,,0.07,Wunderground v.1.15,2013-01-27 22:14:00,
2013-01-27 17:20:00,24.0,19.3,29.67,SSE,154,5.0,12.0,82,0.00,,,0.07,Wunderground v.1.15,2013-01-27 22:20:00,
2013-01-27 17:25:00,23.5,19.1,29.67,SSE,161,6.0,12.0,83,0.00,,,0.07,Wunderground v.1.15,2013-01-27 22:25:00,
2013-01-27 17:30:00,23.3,18.9,29.67,SSE,161,5.0,12.0,83,0.00,,,0.07,Wunderground v.1.15,2013-01-27 22:30:00,
2013-01-27 17:35:00,23.1,19.0,29.67,South,170,4.0,12.0,84,0.00,,,0.07,Wunderground v.1.15,2013-01-27 22:35:00,
2013-01-27 17:40:00,23.1,19.0,29.67,South,170,5.0,12.0,84,0.00,,,0.07,Wunderground v.1.15,2013-01-27 22:40:00,
2013-01-27 17:45:00,23.0,18.9,29.67,SSE,168,4.0,12.0,84,0.00,,,0.07,Wunderground v.1.15,2013-01-27 22:45:00,
2013-01-27 17:55:00,22.9,18.8,29.67,South,174,3.0,12.0,84,0.00,,,0.07,Wunderground v.1.15,2013-01-27 22:55:00,
2013-01-27 18:00:00,22.9,18.8,29.67,South,174,2.0,2.0,84,0.00,,,0.07,Wunderground v.1.15,2013-01-27 23:00:00,
2013-01-27 18:05:00,22.8,18.7,29.66,South,174,2.0,5.0,84,0.00,,,0.07,Wunderground v.1.15,2013-01-27 23:05:00,
2013-01-27 18:10:00,22.6,18.5,29.66,South,174,3.0,12.0,84,0.00,,,0.07,Wunderground v.1.15,2013-01-27 23:10:00,
2013-01-27 18:15:00,22.5,18.4,29.66,South,174,3.0,12.0,84,0.00,,,0.07,Wunderground v.1.15,2013-01-27 23:15:00,
2013-01-27 18:25:00,21.9,17.5,29.65,SSW,195,5.0,12.0,83,0.00,,,0.07,Wunderground v.1.15,2013-01-27 23:25:00,
2013-01-27 18:30:00,20.9,16.5,29.64,South,181,5.0,5.0,83,0.00,,,0.07,Wunderground v.1.15,2013-01-27 23:30:00,
2013-01-27 18:35:00,20.5,16.4,29.64,South,190,3.0,12.0,84,0.00,,,0.07,Wunderground v.1.15,2013-01-27 23:35:00,
2013-01-27 18:40:00,20.5,16.7,29.64,South,190,2.0,12.0,85,0.00,,,0.07,Wunderground v.1.15,2013-01-27 23:40:00,
2013-01-27 18:45:00,20.6,16.8,29.64,SSW,194,3.0,12.0,85,0.00,,,0.07,Wunderground v.1.15,2013-01-27 23:45:00,
2013-01-27 18:50:00,20.7,16.9,29.64,SSW,201,4.0,12.0,85,0.00,,,0.07,Wunderground v.1.15,2013-01-27 23:50:00,
2013-01-27 19:00:00,21.0,17.2,29.64,South,190,4.0,4.0,85,0.00,,,0.07,Wunderground v.1.15,2013-01-28 00:00:00,
2013-01-27 19:05:00,21.0,17.2,29.65,South,190,3.0,12.0,85,0.00,,,0.07,Wunderground v.1.15,2013-01-28 00:05:00,
2013-01-27 19:10:00,21.2,17.4,29.65,South,190,2.0,2.0,85,0.00,,,0.07,Wunderground v.1.15,2013-01-28 00:10:00,
2013-01-27 19:15:00,21.3,17.5,29.65,South,190,1.0,12.0,85,0.00,,,0.07,Wunderground v.1.15,2013-01-28 00:15:00,
2013-01-27 19:20:00,21.1,17.3,29.65,South,190,1.0,12.0,85,0.00,,,0.07,Wunderground v.1.15,2013-01-28 00:20:00,
2013-01-27 19:30:00,21.3,17.8,29.66,South,190,0.0,12.0,86,0.00,,,0.07,Wunderground v.1.15,2013-01-28 00:30:00,
2013-01-27 19:35:00,21.3,17.8,29.65,South,190,0.0,12.0,86,0.00,,,0.07,Wunderground v.1.15,2013-01-28 00:35:00,
2013-01-27 19:40:00,21.4,17.9,29.65,South,190,0.0,12.0,86,0.00,,,0.07,Wunderground v.1.15,2013-01-28 00:40:00,
2013-01-27 19:45:00,21.5,18.0,29.65,South,190,0.0,12.0,86,0.00,,,0.07,Wunderground v.1.15,2013-01-28 00:45:00,
2013-01-27 19:50:00,21.7,18.2,29.65,South,190,1.0,1.0,86,0.00,,,0.07,Wunderground v.1.15,2013-01-28 00:50:00,
2013-01-27 19:55:00,21.9,18.4,29.65,South,190,1.0,3.0,86,0.00,,,0.07,Wunderground v.1.15,2013-01-28 00:55:00,
2013-01-27 20:04:00,22.1,18.6,29.64,South,190,1.0,12.0,86,0.00,,,0.07,Wunderground v.1.15,2013-01-28 01:04:00,
2013-01-27 20:09:00,22.1,18.6,29.64,South,190,1.0,12.0,86,0.00,,,0.07,Wunderground v.1.15,2013-01-28 01:09:00,
2013-01-27 20:14:00,22.2,18.7,29.64,South,171,1.0,12.0,86,0.00,,,0.07,Wunderground v.1.15,2013-01-28 01:14:00,
2013-01-27 20:19:00,22.4,18.8,29.64,South,173,2.0,12.0,86,0.00,,,0.07,Wunderground v.1.15,2013-01-28 01:19:00,
2013-01-27 20:24:00,22.6,18.8,29.63,South,179,3.0,12.0,85,0.00,,,0.07,Wunderground v.1.15,2013-01-28 01:24:00,
2013-01-27 20:30:00,22.6,18.8,29.63,South,183,3.0,12.0,85,0.00,,,0.07,Wunderground v.1.15,2013-01-28 01:30:00,
2013-01-27 20:35:00,22.3,18.2,29.63,South,187,3.0,12.0,84,0.00,,,0.07,Wunderground v.1.15,2013-01-28 01:35:00,
2013-01-27 20:40:00,22.1,18.0,29.63,South,184,3.0,3.0,84,0.00,,,0.07,Wunderground v.1.15,2013-01-28 01:40:00,
2013-01-27 20:45:00,22.0,17.9,29.62,South,174,3.0,6.0,84,0.00,,,0.07,Wunderground v.1.15,2013-01-28 01:45:00,
2013-01-27 20:50:00,21.8,17.4,29.62,South,190,3.0,12.0,83,0.00,,,0.07,Wunderground v.1.15,2013-01-28 01:50:00,
2013-01-27 20:55:00,21.5,17.1,29.62,South,184,3.0,12.0,83,0.00,,,0.07,Wunderground v.1.15,2013-01-28 01:55:00,
2013-01-27 21:05:00,21.0,16.6,29.61,South,188,4.0,12.0,83,0.00,,,0.07,Wunderground v.1.15,2013-01-28 02:05:00,
2013-01-27 21:10:00,21.5,17.1,29.61,SSW,207,5.0,12.0,83,0.00,,,0.07,Wunderground v.1.15,2013-01-28 02:10:00,
2013-01-27 21:15:00,21.9,17.5,29.60,South,186,7.0,12.0,83,0.00,,,0.07,Wunderground v.1.15,2013-01-28 02:15:00,
2013-01-27 21:20:00,22.2,17.8,29.60,SSW,193,8.0,12.0,83,0.00,,,0.07,Wunderground v.1.15,2013-01-28 02:20:00,
2013-01-27 21:25:00,22.5,17.8,29.60,SSW,193,7.0,12.0,82,0.00,,,0.07,Wunderground v.1.15,2013-01-28 02:25:00,
2013-01-27 21:30:00,22.5,17.8,29.60,SW,224,7.0,7.0,82,0.00,,,0.07,Wunderground v.1.15,2013-01-28 02:30:00,
2013-01-27 21:40:00,22.5,17.8,29.60,SSW,194,6.0,6.0,82,0.00,,,0.07,Wunderground v.1.15,2013-01-28 02:40:00,
2013-01-27 21:45:00,22.6,17.9,29.60,South,176,6.0,9.0,82,0.00,,,0.07,Wunderground v.1.15,2013-01-28 02:45:00,
2013-01-27 21:50:00,22.7,18.0,29.60,SW,214,6.0,12.0,82,0.00,,,0.07,Wunderground v.1.15,2013-01-28 02:50:00,
2013-01-27 21:55:00,22.7,18.0,29.60,SSW,206,7.0,12.0,82,0.00,,,0.07,Wunderground v.1.15,2013-01-28 02:55:00,
2013-01-27 22:00:00,22.7,18.0,29.59,SSW,213,6.0,12.0,82,0.00,,,0.07,Wunderground v.1.15,2013-01-28 03:00:00,
2013-01-27 22:10:00,22.8,18.1,29.59,SSW,201,6.0,12.0,82,0.00,,,0.07,Wunderground v.1.15,2013-01-28 03:10:00,
2013-01-27 22:15:00,22.9,17.9,29.59,SW,232,6.0,12.0,81,0.00,,,0.07,Wunderground v.1.15,2013-01-28 03:15:00,
2013-01-27 22:20:00,23.1,18.1,29.59,SSW,194,7.0,7.0,81,0.00,,,0.07,Wunderground v.1.15,2013-01-28 03:20:00,
2013-01-27 22:25:00,23.1,18.1,29.59,WSW,246,7.0,8.0,81,0.00,,,0.07,Wunderground v.1.15,2013-01-28 03:25:00,
2013-01-27 22:30:00,23.2,18.2,29.59,SW,227,7.0,7.0,81,0.00,,,0.07,Wunderground v.1.15,2013-01-28 03:30:00,
2013-01-27 22:35:00,23.2,18.2,29.58,SW,215,6.0,12.0,81,0.00,,,0.07,Wunderground v.1.15,2013-01-28 03:35:00,
2013-01-27 22:45:00,23.3,18.3,29.59,SW,218,4.0,12.0,81,0.00,,,0.07,Wunderground v.1.15,2013-01-28 03:45:00,
2013-01-27 22:50:00,23.4,18.4,29.59,SW,225,5.0,12.0,81,0.00,,,0.07,Wunderground v.1.15,2013-01-28 03:50:00,
2013-01-27 22:55:00,23.4,18.1,29.59,SW,226,6.0,12.0,80,0.00,,,0.07,Wunderground v.1.15,2013-01-28 03:55:00,
2013-01-27 23:00:00,23.5,18.5,29.59,SW,221,5.0,5.0,81,0.00,,,0.07,Wunderground v.1.15,2013-01-28 04:00:00,
2013-01-27 23:05:00,23.5,18.5,29.59,SSW,213,4.0,12.0,81,0.00,,,0.07,Wunderground v.1.15,2013-01-28 04:05:00,
2013-01-27 23:15:00,23.5,18.5,29.58,SW,221,5.0,12.0,81,0.00,,,0.07,Wunderground v.1.15,2013-01-28 04:15:00,
2013-01-27 23:20:00,23.6,18.6,29.58,SW,219,5.0,5.0,81,0.00,,,0.07,Wunderground v.1.15,2013-01-28 04:20:00,
2013-01-27 23:25:00,23.6,18.6,29.58,SSW,199,6.0,6.0,81,0.00,,,0.07,Wunderground v.1.15,2013-01-28 04:25:00,
2013-01-27 23:30:00,23.7,18.7,29.58,SW,225,6.0,12.0,81,0.00,,,0.07,Wunderground v.1.15,2013-01-28 04:30:00,
2013-01-27 23:35:00,23.8,18.8,29.57,SSW,209,6.0,12.0,81,0.00,,,0.07,Wunderground v.1.15,2013-01-28 04:35:00,
2013-01-27 23:40:00,23.8,18.8,29.57,SSW,209,6.0,12.0,81,0.00,,,0.07,Wunderground v.1.15,2013-01-28 04:40:00,
2013-01-27 23:49:00,23.9,18.9,29.56,SSW,202,5.0,5.0,81,0.00,,,0.07,Wunderground v.1.15,2013-01-28 04:49:00,
2013-01-27 23:54:00,23.9,18.9,29.56,SW,234,6.0,6.0,81,0.00,,,0.07,Wunderground v.1.15,2013-01-28 04:54:00,